Home > Products > State Listing > South Carolina Data
Latest:
 RWRCAE |
  [top]

000
ASUS42 KCAE 280110
RWRCAE
REGIONAL WEATHER ROUNDUP
NATIONAL WEATHER SERVICE COLUMBIA SC
900 PM EDT FRI MAY 27 2016

NOTE: "FAIR" INDICATES FEW OR NO CLOUDS BELOW 12,000 FEET WITH NO
SIGNIFICANT WEATHER AND/OR OBSTRUCTIONS TO VISIBILITY.

NOT ALL STATIONS ARE QUALITY CONTROLLED BY THE NATIONAL
WEATHER SERVICE. USE DATA WITH CAUTION...ESPECIALLY
DEWPOINT OBSERVATIONS.

SCZ001>056-GAZ040-063>065-077-280200-
...UPSTATE SOUTH CAROLINA...

CITY           SKY/WX    TMP DP  RH WIND       PRES   REMARKS
ANDERSON       CLEAR     75  63  66 E3        30.07R
LIBERTY        CLEAR     74  64  70 SE5       30.08R
SPARTANBURG    CLEAR     73  64  73 CALM      30.08R
CLEMSON        CLEAR     77  62  59 CALM      30.09R
GREENVILLE     CLEAR     78  60  53 SE6       30.10R
GREENWOOD      MOCLDY    76  64  66 CALM      30.08R
GREER          CLEAR     73  63  70 SE3       30.08R
ROCK HILL      CLOUDY    76  65  68 CALM      30.09R
CHESTER        CLEAR     73  63  68 SE3       30.09R
LAURENS        PTCLDY    73  66  78 CALM      30.08R


...CENTRAL SOUTH CAROLINA...

CITY           SKY/WX    TMP DP  RH WIND       PRES   REMARKS
COLUMBIA APT   PTCLDY    80  54  40 SE8       30.07R
COLUMBIA OWENS CLEAR     80  56  43 VRB3      30.08R
MCENTIRE ANGB  CLEAR     75  57  54 E3        30.08R
ORANGEBURG     CLEAR     76  59  55 SE6       30.08R
SUMTER SHAW    CLEAR     76  51  41 SE6       30.06R
NEWBERRY       CLEAR     75  64  69 CALM      30.11R
AIKEN          FAIR      77  57  50 E3        30.10R
BARNWELL       FAIR      81  64  57 S8        30.08R
MANNING        FAIR      72  57  60 SE3       30.09R
LANCASTER      CLEAR     75  64  69 CALM      30.08R


...EASTERN AND COASTAL SOUTH CAROLINA...

CITY           SKY/WX    TMP DP  RH WIND       PRES   REMARKS
MYRTLE BEACH   CLEAR     75  61  60 E9        30.11F
N MYRTLE BCH   CLEAR     75  65  70 E7        30.10S
CONWAY         FAIR      68  61  77 CALM      30.10S
MARION         FAIR      72  57  60 SE3       30.10S
HARTSVILLE     FAIR      73  57  56 SE5       30.08R
FLORENCE       CLEAR     75  55  49 SE8       30.10R
DARLINGTON     CLEAR     76  60  57 SE7       30.09R
CHARLESTON APT PTCLDY    75  62  64 E7        30.08S
MOUNT PLEASANT FAIR      73  64  73 CALM      30.08S
WALTERBORO     CLEAR     73  61  64 E3        30.08S
BEAUFORT       CLEAR     75  65  70 E6        30.07S


...EASTERN GEORGIA...

CITY           SKY/WX    TMP DP  RH WIND       PRES   REMARKS
AUGUSTA BUSH F CLEAR     73  61  65 SE6       30.05R
AUGUSTA DANIEL CLEAR     81  59  47 SE5       30.06R
THOMSON        CLEAR     77  66  68 CALM      30.10R
WASHINGTON     FAIR      81  68  65 CALM      30.06R
CLAXTON        FAIR      74  65  75 E3        30.07R
SYLVANIA       CLEAR     76  62  62 CALM      30.08R
STATESBORO     CLEAR     76  65  70 SE3       30.08R
SAVANNAH       PTCLDY    75  64  68 E9        30.07R


...SOUTHERN NORTH CAROLINA...

CITY           SKY/WX    TMP DP  RH WIND       PRES   REMARKS
CHARLOTTE      MOCLDY    77  61  57 S5        30.09R
WADESBORO      CLEAR     74  61  62 CALM      30.07S
ROCKINGHAM     CLEAR     78  62  58 SE6       30.08R
RUTHERFORDTON  CLEAR     75  63  65 SE6       30.10R
ASHEVILLE      PTCLDY    71  60  68 CALM      30.14R

$$





000
ASUS42 KCAE 271910
RWRCAE
REGIONAL WEATHER ROUNDUP
NATIONAL WEATHER SERVICE COLUMBIA SC
300 PM EDT FRI MAY 27 2016

NOTE: "FAIR" INDICATES FEW OR NO CLOUDS BELOW 12,000 FEET WITH NO
SIGNIFICANT WEATHER AND/OR OBSTRUCTIONS TO VISIBILITY.

NOT ALL STATIONS ARE QUALITY CONTROLLED BY THE NATIONAL
WEATHER SERVICE. USE DATA WITH CAUTION...ESPECIALLY
DEWPOINT OBSERVATIONS.

SCZ001>056-GAZ040-063>065-077-272000-
...UPSTATE SOUTH CAROLINA...

CITY           SKY/WX    TMP DP  RH WIND       PRES   REMARKS
ANDERSON       SUNNY     82  57  42 VRB6      30.11F
LIBERTY        PTCLDY    83  63  50 CALM      30.11F
SPARTANBURG    SUNNY     82  59  44 SE5       30.11F
CLEMSON        MOSUNNY   83  61  47 CALM      30.12F
GREENVILLE     SUNNY     83  59  44 SW9       30.12F
GREENWOOD      CLOUDY    82  58  43 CALM      30.12F
GREER          MOSUNNY   83  61  47 S6        30.10F
ROCK HILL      MOSUNNY   84  62  47 S9        30.12F
CHESTER        PTCLDY    82  55  39 SE5       30.13S
LAURENS        CLEAR     82  61  47 S7        30.11F


...CENTRAL SOUTH CAROLINA...

CITY           SKY/WX    TMP DP  RH WIND       PRES   REMARKS
COLUMBIA APT   MOSUNNY   86  62  44 SE9       30.08F
COLUMBIA OWENS MOSUNNY   86  62  44 VRB6      30.09F
MCENTIRE ANGB  MOSUNNY   85  62  45 NE7       30.09F
ORANGEBURG     MOSUNNY   85  59  41 E10G17    30.09F
SUMTER SHAW    MOSUNNY   85  62  45 E10G21    30.07F
NEWBERRY       MOCLDY    82  61  47 CALM      30.14S
AIKEN          MOCLDY    82  61  47 SE8       30.13S
BARNWELL       FAIR      88  63  42 SE5       30.09F
MANNING        FAIR      86  57  37 SE8       30.10F
LANCASTER      CLEAR     82  63  51 SE3       30.12F
WINNSBORO      PTCLDY    82  61  47 CALM      30.11F


...EASTERN AND COASTAL SOUTH CAROLINA...

CITY           SKY/WX    TMP DP  RH WIND       PRES   REMARKS
MYRTLE BEACH   MOSUNNY   81  61  50 SE9       30.15F
N MYRTLE BCH   SUNNY     79  60  52 SE12      30.13F
CONWAY         FAIR      82  61  47 SE8       30.13S
MARION         FAIR      84  59  42 NE7       30.10F
HARTSVILLE     MOCLDY    86  61  42 SE5       30.10F
FLORENCE       MOSUNNY   85  60  42 SE8       30.11F
DARLINGTON     MOSUNNY   85  64  49 SE6       30.11F
CHARLESTON APT MOSUNNY   84  57  39 SE13G18   30.10F
MOUNT PLEASANT FAIR      81  61  50 E7        30.12F
WALTERBORO     PTCLDY    88  52  29 E14       30.09F
BEAUFORT       MOSUNNY   84  63  49 MISG      30.10F


...EASTERN GEORGIA...

CITY           SKY/WX    TMP DP  RH WIND       PRES   REMARKS
AUGUSTA BUSH F MOSUNNY   85  63  47 VRB5      30.08F
AUGUSTA DANIEL PTSUNNY   85  61  44 SE9       30.10F
THOMSON        PTSUNNY   86  64  47 E7        30.14F
WASHINGTON     FAIR      82  63  51 E5        30.11F
CLAXTON        FAIR      86  59  39 E7        30.08S
SYLVANIA       CLEAR     87  59  38 S7        30.09F
STATESBORO     SUNNY     87  61  41 SE9       30.09S
SAVANNAH       MOSUNNY   84  59  42 E13       30.10F


...SOUTHERN NORTH CAROLINA...

CITY           SKY/WX    TMP DP  RH WIND       PRES   REMARKS
CHARLOTTE      MOSUNNY   83  62  49 S6        30.12F
MONROE         SUNNY     83  61  47 VRB3      30.12
WADESBORO      MOCLDY    86  56  35 S8        30.11F
ROCKINGHAM     CLOUDY    84  61  46 SE7       30.11F
RUTHERFORDTON  PTSUNNY   82  64  55 S8G16     30.12F
ASHEVILLE      CLOUDY    76  63  64 CALM      30.15F

$$





000
ASUS42 KCAE 271610
RWRCAE
REGIONAL WEATHER ROUNDUP
NATIONAL WEATHER SERVICE COLUMBIA SC
1200 PM EDT FRI MAY 27 2016

NOTE: "FAIR" INDICATES FEW OR NO CLOUDS BELOW 12,000 FEET WITH NO
SIGNIFICANT WEATHER AND/OR OBSTRUCTIONS TO VISIBILITY.

NOT ALL STATIONS ARE QUALITY CONTROLLED BY THE NATIONAL
WEATHER SERVICE. USE DATA WITH CAUTION...ESPECIALLY
DEWPOINT OBSERVATIONS.

SCZ001>056-GAZ040-063>065-077-271700-
...UPSTATE SOUTH CAROLINA...

CITY           SKY/WX    TMP DP  RH WIND       PRES   REMARKS
ANDERSON       SUNNY     79  60  52 VRB6      30.16S
LIBERTY        SUNNY     80  62  55 S8        30.16S
SPARTANBURG    SUNNY     79  55  44 SW5       30.16S
CLEMSON        MOSUNNY   80  60  50 W7        30.17S
GREENVILLE     SUNNY     80  51  36 S12       30.17S
GREENWOOD      MOSUNNY   79  59  50 VRB6      30.18S
GREER          SUNNY     80  58  46 SW8       30.15S
ROCK HILL      SUNNY     80  60  50 SW10      30.17S
CHESTER        SUNNY     81  57  44 S7        30.17S
LAURENS        SUNNY     77  59  53 SW7       30.17S


...CENTRAL SOUTH CAROLINA...

CITY           SKY/WX    TMP DP  RH WIND       PRES   REMARKS
COLUMBIA APT   MOSUNNY   84  62  47 CALM      30.14F
COLUMBIA OWENS MOSUNNY   83  58  42 SE6       30.16S
ORANGEBURG     MOSUNNY   82  61  48 NE3       30.15S
SUMTER SHAW    SUNNY     82  62  50 VRB3      30.13S
NEWBERRY       PTSUNNY   79  61  53 SE3       30.19S
AIKEN          PTSUNNY   77  61  57 CALM      30.19S
BARNWELL       FAIR      84  63  48 E8        30.15S
MANNING        FAIR      81  61  50 S5        30.15S
LANCASTER      MOSUNNY   81  63  54 E3        30.17S


...EASTERN AND COASTAL SOUTH CAROLINA...

CITY           SKY/WX    TMP DP  RH WIND       PRES   REMARKS
MYRTLE BEACH   MOSUNNY   81  61  50 SE12      30.18S
N MYRTLE BCH   SUNNY     79  63  57 SE10      30.17R
CONWAY         FAIR      81  61  50 E6        30.16S
MARION         FAIR      81  61  50 SE5       30.16R
HARTSVILLE     FAIR      79  61  53 CALM      30.17S
FLORENCE       SUNNY     81  62  52 CALM      30.16S
DARLINGTON     MOSUNNY   79  62  56 CALM      30.17S
CHARLESTON APT MOSUNNY   83  58  42 E10G18    30.15R
MOUNT PLEASANT FAIR      81  61  50 SE8       30.15S
WALTERBORO     SUNNY     82  59  44 CALM      30.15F
BEAUFORT       SUNNY     82  60  47 E8        30.15R


...EASTERN GEORGIA...

CITY           SKY/WX    TMP DP  RH WIND       PRES   REMARKS
AUGUSTA BUSH F SUNNY     81  61  50 SE9       30.14S
AUGUSTA DANIEL MOSUNNY   82  57  42 SE7       30.16S
THOMSON        MOSUNNY   81  63  54 CALM      30.19S
WASHINGTON     FAIR      81  63  54 S3        30.16S
CLAXTON        FAIR      82  60  47 NE6       30.13S
SYLVANIA       SUNNY     83  60  44 SE7       30.15S
STATESBORO     SUNNY     83  60  46 E7        30.13S
SAVANNAH       MOSUNNY   83  58  42 E7        30.14S


...SOUTHERN NORTH CAROLINA...

CITY           SKY/WX    TMP DP  RH WIND       PRES   REMARKS
CHARLOTTE      MOSUNNY   80  59  48 SW8       30.17S
WADESBORO      PTSUNNY   82  59  46 SW6       30.16S
ROCKINGHAM     PTSUNNY   79  61  53 W5        30.17S
RUTHERFORDTON  SUNNY     78  67  67 S9        30.16F
ASHEVILLE      SUNNY     77  61  57 S7        30.18F

$$





    US Dept of Commerce
    National Oceanic and Atmospheric Administration
    National Weather Service
    1325 East West Highway
    Silver Spring, MD 20910
    Page Author: NWS Internet Services Team
Disclaimer
Information Quality
Credits
Glossary
Privacy Policy
Freedom of Information Act (FOIA)
About Us
Career Opportunities